Devils Lake, ND

1:03 PM CDT on April 26, 2017 (GMT -0500)
Devils Lake Municipal

Weather History for KDVL - December, 2013

Change the Weather History Date:

Tuesday, December 3, 2013

  Actual Average Record
Temperature  
Mean Temperature 14 °F -  
Max Temperature 19 °F 24 °F 47 °F (1967)
Min Temperature 10 °F 9 °F -20 °F (1964)
Degree Days  
Heating Degree Days 50    
Moisture  
Dew Point 5 °F    
Average Humidity 68    
Maximum Humidity 74    
Minimum Humidity 62    
Precipitation  
Precipitation 0.00 in - - ()
Sea Level Pressure  
Sea Level Pressure 29.89 in    
Wind  
Wind Speed 20 mph (NNE)    
Max Wind Speed 25 mph    
Max Gust Speed 34 mph    
Visibility 4 miles    
Events      
Averages and records for this station are not official NWS values.
T = Trace of Precipitation, MM = Missing Value Source: NWS Daily Summary

Daily Weather History Graph

Daily Weather History Graph

Search for Another Location

Airport or City:

Trip Planner

Search our weather history database for the weather conditions in past years. The results will help you decide how hot, cold, wet, or windy it might be!

Date:

Astronomy

Dec. 03, 2013 Rise Set
Actual Time 8:07 AM CST 4:43 PM CST
Civil Twilight 7:31 AM CST 5:19 PM CST
Nautical Twilight 6:52 AM CST 5:58 PM CST
Astronomical Twilight 6:15 AM CST 6:35 PM CST
Moon 8:36 AM CST (12/3) 5:50 PM CST (12/3)
Length of Visible Light 9h 47m
Length of Day
8h 35m
New Moon, 1% of the Moon is Illuminated
Dec 3
New Moon
Dec 9
First Quarter
Dec 17
Full
Dec 25
Last Quarter
Jan 1
New

Hourly Weather History & Observations

Time (CST) Temp. Windchill Dew Point Humidity Pressure Visibility Wind Dir Wind Speed Gust Speed Precip Events Conditions
12:15 AM 19.4 °F 4.1 °F 12.2 °F 74% 29.80 in 5.0 mi NNE 18.4 mph - N/A   Overcast
12:35 AM 19.4 °F 4.1 °F 12.2 °F 74% 29.79 in 5.0 mi NNE 18.4 mph 24.2 mph N/A   Overcast
12:55 AM 19.4 °F 2.8 °F 12.2 °F 74% 29.78 in 4.0 mi NNE 21.9 mph 25.3 mph N/A   Overcast
1:15 AM 19.4 °F 3.2 °F 10.4 °F 68% 29.79 in 5.0 mi NNE 20.7 mph 27.6 mph N/A   Overcast
1:35 AM 19.4 °F 4.1 °F 10.4 °F 68% 29.81 in 5.0 mi NNE 18.4 mph 27.6 mph N/A   Overcast
1:55 AM 17.6 °F 2.2 °F 10.4 °F 73% 29.81 in 3.0 mi NNE 17.3 mph 25.3 mph N/A   Overcast
2:15 AM 17.6 °F 0.1 °F 10.4 °F 73% 29.81 in 3.0 mi NNE 23.0 mph 26.5 mph N/A   Overcast
2:35 AM 17.6 °F 0.9 °F 10.4 °F 73% 29.81 in 4.0 mi NNE 20.7 mph 27.6 mph N/A   Overcast
2:55 AM 17.6 °F 1.3 °F 8.6 °F 68% 29.82 in 4.0 mi NNE 19.6 mph 27.6 mph N/A   Overcast
3:15 AM 17.6 °F -0.3 °F 8.6 °F 68% 29.81 in 4.0 mi NNE 24.2 mph 28.8 mph N/A   Overcast
3:35 AM 15.8 °F -1.9 °F 8.6 °F 73% 29.82 in 3.0 mi NNE 21.9 mph 31.1 mph N/A   Overcast
3:55 AM 15.8 °F -1.1 °F 8.6 °F 73% 29.82 in 3.0 mi NNE 19.6 mph 26.5 mph N/A   Overcast
4:15 AM 15.8 °F -1.9 °F 6.8 °F 68% 29.82 in 2.5 mi NNE 21.9 mph 27.6 mph N/A   Overcast
4:35 AM 15.8 °F -1.1 °F 6.8 °F 68% 29.83 in 3.0 mi NNE 19.6 mph 27.6 mph N/A   Overcast
4:55 AM 15.8 °F -1.9 °F 6.8 °F 68% 29.84 in 3.0 mi NNE 21.9 mph 25.3 mph N/A   Overcast
5:15 AM 15.8 °F -2.7 °F 6.8 °F 68% 29.84 in 8.0 mi NNE 24.2 mph 29.9 mph N/A   Overcast
5:35 AM 15.8 °F -2.7 °F 6.8 °F 68% 29.84 in 10.0 mi NNE 24.2 mph 28.8 mph N/A   Overcast
5:55 AM 15.8 °F -1.5 °F 6.8 °F 68% 29.84 in 10.0 mi NNE 20.7 mph 29.9 mph N/A   Overcast
6:15 AM 15.8 °F -1.9 °F 6.8 °F 68% 29.84 in 10.0 mi NNE 21.9 mph 29.9 mph N/A   Overcast
6:35 AM 15.8 °F -3.1 °F 6.8 °F 68% 29.84 in 8.0 mi NNE 25.3 mph 34.5 mph N/A   Overcast
6:55 AM 15.8 °F -0.6 °F 5.0 °F 62% 29.86 in 9.0 mi NNE 18.4 mph 27.6 mph N/A   Overcast
7:15 AM 14.0 °F -4.3 °F 5.0 °F 67% 29.88 in 6.0 mi NNE 21.9 mph 26.5 mph N/A   Overcast
7:35 AM 14.0 °F -2.0 °F 3.2 °F 62% 29.89 in 8.0 mi North 16.1 mph - N/A   Overcast
7:55 AM 14.0 °F -2.5 °F 5.0 °F 67% 29.89 in 5.0 mi North 17.3 mph 25.3 mph N/A   Overcast
8:15 AM 14.0 °F -2.0 °F 5.0 °F 67% 29.88 in 3.0 mi North 16.1 mph - N/A   Overcast
8:35 AM 12.2 °F -4.8 °F 5.0 °F 73% 29.89 in 2.5 mi North 17.3 mph 23.0 mph N/A   Overcast
8:55 AM 14.0 °F -3.0 °F 5.0 °F 67% 29.89 in 3.0 mi North 18.4 mph - N/A   Overcast
9:15 AM 14.0 °F -0.8 °F 6.8 °F 73% 29.90 in 3.0 mi NNE 13.8 mph 23.0 mph N/A   Overcast
9:35 AM 14.0 °F -3.9 °F 6.8 °F 73% 29.91 in 2.5 mi North 20.7 mph 24.2 mph N/A   Overcast
9:55 AM 14.0 °F -4.3 °F 5.0 °F 67% 29.91 in 2.0 mi NNE 21.9 mph 25.3 mph N/A   Overcast
10:15 AM 14.0 °F -5.1 °F 6.8 °F 73% 29.90 in 2.0 mi NNE 24.2 mph 27.6 mph N/A   Overcast
10:35 AM 14.0 °F -3.9 °F 5.0 °F 67% 29.91 in 3.0 mi NNE 20.7 mph 25.3 mph N/A   Overcast
10:55 AM 12.2 °F -7.1 °F 5.0 °F 73% 29.92 in 5.0 mi NNE 23.0 mph - N/A   Overcast
11:15 AM 12.2 °F -7.1 °F 3.2 °F 67% 29.91 in 4.0 mi NNE 23.0 mph 28.8 mph N/A   Overcast
11:35 AM 12.2 °F -6.3 °F 3.2 °F 67% 29.91 in 2.5 mi NNE 20.7 mph - N/A   Overcast
11:55 AM 14.0 °F -4.3 °F 5.0 °F 67% 29.91 in 5.0 mi NNE 21.9 mph 26.5 mph N/A   Overcast
12:15 PM 14.0 °F -3.4 °F 3.2 °F 62% 29.90 in 2.5 mi NNE 19.6 mph 27.6 mph N/A   Overcast
12:35 PM 14.0 °F -3.0 °F 3.2 °F 62% 29.90 in 4.0 mi NNE 18.4 mph 26.5 mph N/A   Overcast
12:55 PM 14.0 °F -4.3 °F 5.0 °F 67% 29.89 in 2.0 mi NNE 21.9 mph 26.5 mph N/A   Overcast
1:15 PM 14.0 °F -4.3 °F 3.2 °F 62% 29.89 in 2.0 mi NNE 21.9 mph 27.6 mph N/A   Overcast
1:35 PM 14.0 °F -3.4 °F 3.2 °F 62% 29.89 in 3.0 mi NNE 19.6 mph 27.6 mph N/A   Overcast
1:55 PM 14.0 °F -3.4 °F 3.2 °F 62% 29.90 in 3.0 mi NNE 19.6 mph 24.2 mph N/A   Overcast
2:15 PM 14.0 °F -2.5 °F 5.0 °F 67% 29.91 in 4.0 mi NNE 17.3 mph - N/A   Overcast
2:35 PM 14.0 °F -3.0 °F 3.2 °F 62% 29.92 in 7.0 mi North 18.4 mph - N/A   Overcast
2:55 PM 14.0 °F -3.9 °F 3.2 °F 62% 29.92 in 4.0 mi NNE 20.7 mph 25.3 mph N/A   Overcast
3:15 PM 14.0 °F -2.0 °F 3.2 °F 62% 29.92 in 5.0 mi NNE 16.1 mph - N/A   Overcast
3:35 PM 14.0 °F -2.5 °F 3.2 °F 62% 29.92 in 4.0 mi NNE 17.3 mph 23.0 mph N/A   Overcast
3:55 PM 12.2 °F -6.3 °F 3.2 °F 67% 29.91 in 5.0 mi NNE 20.7 mph - N/A   Overcast
4:15 PM 12.2 °F -5.8 °F 5.0 °F 73% 29.91 in 4.0 mi North 19.6 mph - N/A   Overcast
4:35 PM 12.2 °F -5.8 °F 3.2 °F 67% 29.92 in 4.0 mi NNE 19.6 mph - N/A   Overcast
4:55 PM 12.2 °F -5.3 °F 3.2 °F 67% 29.93 in 4.0 mi NNE 18.4 mph - N/A   Overcast
5:15 PM 12.2 °F -6.3 °F 5.0 °F 73% 29.94 in 5.0 mi North 20.7 mph - N/A   Overcast
5:35 PM 12.2 °F -5.8 °F 3.2 °F 67% 29.93 in 5.0 mi North 19.6 mph 25.3 mph N/A   Overcast
5:55 PM 12.2 °F -5.3 °F 3.2 °F 67% 29.93 in 5.0 mi North 18.4 mph 25.3 mph N/A   Overcast
6:15 PM 12.2 °F -5.8 °F 5.0 °F 73% 29.93 in 5.0 mi North 19.6 mph - N/A   Overcast
6:35 PM 12.2 °F -5.3 °F 5.0 °F 73% 29.93 in 5.0 mi North 18.4 mph - N/A   Overcast
6:55 PM 12.2 °F -5.3 °F 5.0 °F 73% 29.94 in 7.0 mi North 18.4 mph 23.0 mph N/A   Overcast
7:15 PM 12.2 °F -4.8 °F 3.2 °F 67% 29.95 in 7.0 mi North 17.3 mph - N/A   Overcast
7:35 PM 12.2 °F -4.3 °F 5.0 °F 73% 29.95 in 6.0 mi North 16.1 mph 21.9 mph N/A   Overcast
7:55 PM 12.2 °F -6.7 °F 3.2 °F 67% 29.94 in 3.0 mi North 21.9 mph - N/A   Overcast
8:15 PM 10.4 °F -8.6 °F 3.2 °F 73% 29.93 in 2.5 mi North 20.7 mph 25.3 mph N/A   Overcast
8:35 PM 12.2 °F -5.3 °F 3.2 °F 67% 29.94 in 3.0 mi North 18.4 mph 25.3 mph N/A   Overcast
8:55 PM 12.2 °F -4.8 °F 1.4 °F 62% 29.94 in 3.0 mi North 17.3 mph - N/A   Overcast
9:15 PM 10.4 °F -9.1 °F 3.2 °F 73% 29.92 in 1.8 mi North 21.9 mph - N/A   Overcast
9:35 PM 12.2 °F -5.3 °F 3.2 °F 67% 29.95 in 2.5 mi North 18.4 mph - N/A   Overcast
9:55 PM 10.4 °F -9.1 °F 3.2 °F 73% 29.94 in 1.8 mi North 21.9 mph - N/A   Overcast
10:15 PM 10.4 °F -8.2 °F 1.4 °F 67% 29.93 in 1.8 mi North 19.6 mph 28.8 mph N/A   Overcast
10:35 PM 10.4 °F -9.1 °F 1.4 °F 67% 29.92 in 2.5 mi NNE 21.9 mph - N/A   Overcast
10:55 PM 10.4 °F -9.1 °F 1.4 °F 67% 29.92 in 2.0 mi North 21.9 mph 29.9 mph N/A   Overcast
11:15 PM 10.4 °F -8.2 °F 1.4 °F 67% 29.92 in 2.5 mi North 19.6 mph 25.3 mph N/A   Overcast
11:35 PM 10.4 °F -9.1 °F 1.4 °F 67% 29.93 in 2.5 mi North 21.9 mph 27.6 mph N/A   Overcast
11:55 PM 10.4 °F -9.5 °F 1.4 °F 67% 29.93 in 2.5 mi North 23.0 mph 28.8 mph N/A   Overcast